Regional Weather Roundup
Issued by NWS Charleston, SC

Current Version | Previous Version | Graphics & Text | Print | Product List | Glossary On
Versions: 1 2 3 4 5 6 7 8 9 10 11 12 13 14 15 16 17 18 19 20 21 22 23 24 25 26 27 28 29 30 31 32 33 34 35 36 37 38 39 40 41 42 43 44 45 46 47 48 49 50
000 ASUS42 KCHS 271012 RWRCHS REGIONAL WEATHER ROUNDUP NATIONAL WEATHER SERVICE CHARLESTON SC 600 AM EDT WED MAY 27 2015 NOTE: "FAIR" INDICATES FEW OR NO CLOUDS BELOW 12,000 FEET WITH NO SIGNIFICANT WEATHER AND/OR OBSTRUCTIONS TO VISIBILITY. NOT ALL STATIONS ARE QUALITY CONTROLLED BY THE NATIONAL WEATHER SERVICE. USE DATA WITH CAUTION...ESPECIALLY DEWPOINT OBSERVATIONS. SCZ027-030-031-034>040-042>050-271100- ...SOUTHEAST SOUTH CAROLINA... CITY SKY/WX TMP DP RH WIND PRES REMARKS N CHARLESTON PTCLDY 72 69 90 S3 30.20R WATERFRONT PAR N/A 76 72 87 S6 30.16R MOUNT PLEASANT FAIR 72 72 100 CALM 30.20R JOHNS ISLAND CLOUDY 73 72 94 CALM 30.20R PINOPOLIS NOT AVBL MONCKS CORNER FAIR 72 68 88 CALM 30.20R FOG SUMMERVILLE FAIR 70 70 100 CALM 30.21R BEAUFORT MCAS PTCLDY 76 71 85 CALM 30.19R BEAUFORT ARPT FAIR 73 70 88 CALM 30.18R HILTON HEAD IS NOT AVBL WALTERBORO SUNNY 68 68 100 CALM 30.20R ALLENDALE FAIR 68 66 94 CALM 30.19R ...SOUTHERN MIDLANDS AND PEE DEE... CITY SKY/WX TMP DP RH WIND PRES REMARKS GEORGETOWN NOT AVBL KINGSTREE NOT AVBL ORANGEBURG CLOUDY 70 67 90 CALM 30.21R BARNWELL CLOUDY 70 70 100 CALM 30.21R AIKEN FOG 63 63 100 CALM 30.25R VSB 1/2 MANNING NOT AVBL COLUMBIA MOCLDY 68 64 87 CALM 30.21R SUMTER MOCLDY 68 66 94 NE2 30.20R FLORENCE PTCLDY 71 69 93 SW5 30.21R MYRTLE BEACH PTCLDY 75 70 83 SE9 30.22 N MYRTLE BEACH NOT AVBL $$ GAZ063-065-086>088-099>101-113>116-118-119-134>141-150-271100- ...SOUTHEAST GEORGIA... CITY SKY/WX TMP DP RH WIND PRES REMARKS SAVANNAH ARPT MOCLDY 72 69 90 S3 30.19R HUNTER AAF CLEAR 73 72 99 CALM 30.17R FORT STEWART NOT AVBL STATESBORO CLEAR 66 32 28 CALM 30.20R SYLVANIA SUNNY 67 67 100 CALM 30.20R CLAXTON FAIR 64 64 100 CALM 30.19R ...CSRA...CENTRAL AND FAR SOUTHEAST GEORGIA... CITY SKY/WX TMP DP RH WIND PRES REMARKS THOMSON CLOUDY 69 69 100 CALM 30.25R AUGUSTA-BUSH MOCLDY 67 66 97 CALM 30.20R AUGUSTA-DANIEL MOCLDY 70 67 90 CALM 30.22R SWAINSBORO FOG N/A N/A N/A CALM 30.20S VSB 3/4 VIDALIA MOCLDY 68 68 100 CALM 30.19R EASTMAN CLOUDY 69 69 100 CALM 30.21R HAZLEHURST FAIR 69 69 100 CALM 30.17S FOG ALMA FOG 67 66 97 CALM 30.17R VSB 1 WAYCROSS PTCLDY 69 69 100 CALM 30.15R FOG JESUP FAIR 70 68 94 CALM 30.17S BAXLEY MOCLDY 70 70 100 CALM 30.17S FOG BRUNSWICK PTCLDY 73 68 83 CALM 30.18R SAINT SIMONS NOT AVBL $$ SCZ027-028-034-036>038-045-046-048>050-GAZ119-141-271100- ...LAKE AND SUPPLEMENTAL COASTAL OBSERVATIONS... STATION/POSITION TIME TEMP WIND PRES WAVE SWELL AIR SEA DIR/SP/G HT/PER HT/PER/DIR (UTC) (F) (DEG/KT/KT) (MB) (FT/S) (FT/S/D) UPR LAKE MARION NOT AVBL WINYAH BAY NOT AVBL LAKE MURRAY 0900 70 120/ 4/ 5 1022.4R ACE BASIN NERRS NOT AVBL FORT PULASKI 0900 76 78 130/ 3/ 6 1022.0F SAPELO ISLAND 0900 76 160/ 7 1021.0S $$ ANZ835-935-AMZ111-154-330-350-352-354-370-450-454-472-271100- ...C-MAN AND BUOY OBSERVATIONS... STATION/POSITION TIME TEMP WIND PRES WAVE SWELL AIR SEA DIR/SP/G HT/PER HT/PER/DIR (UTC) (F) (DEG/KT/KT) (MB) (FT/S) (FT/S/D) BUOY 41004 0950 77 76 150/ 12/ 14 1022.0R 3/ 7 3/ 7 BUOY 41008 0950 76 77 160/ 10/ 12 1022.0R 3/ 7 2/110/ 7 FOLLY BEACH CMAN 1000 76 150/ 9/ 10 1022.6R CAPERS NEARSHORE 0908 76 170/ 8/ 10 1022.1F FRIPP NEARSHORE 0900 76 170/ 10/ 12 1021.4R STATION/POSITION TIME TEMP WIND PRES WAVE SWELL AIR SEA DIR/SP/G HT/PER HT/PER/DIR (UTC) (F) (DEG/KT/KT) (MB) (FT/S) (FT/S/D) 5E ST. MARYS GA 0921 79 N/A 3/ 5 FRYING PAN BUOY 0950 77 74 210/ 6/ 8 1024.6R 3/ 7 3/110/ 7 BUOY 41025 0950 74 78 210/ 10/ 12 1025.1R 3/ 4 2/140/ 5 CAPE LOOKOUT NC 1000 74 190/ 5/ 6 1024.5R BUOY 41002 0950 72 74 80/ 6/ 8 1025.5R 4/ 7 3/120/ 7 BUOY 41010 0920 78 81 100/ 12/ 16 1021.5F ST AUGUSTINE FL 1000 77 78 130/ 11/ 13 1021.8R $$

USA.gov is the U.S. government's official web portal to all federal, state and local government web resources and services.